Date,TemperatureHighF,TemperatureAvgF,TemperatureLowF,DewpointHighF,DewpointAvgF,DewpointLowF,HumidityHigh,HumidityAvg,HumidityLow,PressureMaxIn,PressureMinIn,WindSpeedMaxMPH,WindSpeedAvgMPH,GustSpeedMaxMPH,PrecipitationSumIn
2012-12-1,48.0,46.1,45.0,48.0,46.1,45.0,99,99,99,29.79,29.49,4,2,15,1.31
2012-12-2,48.0,44.5,40.0,48.0,44.5,40.0,99,99,99,29.95,29.37,4,1,17,1.06
2012-12-3,50.0,46.3,43.0,50.0,46.3,43.0,99,99,98,30.18,29.85,4,1,16,1.05
2012-12-4,51.0,46.0,42.0,50.0,45.6,42.0,99,98,86,29.99,29.72,6,2,17,0.75
2012-12-5,42.0,41.1,41.0,42.0,40.1,39.0,99,97,92,30.38,29.98,3,2,12,0.00
2012-12-6,49.0,40.1,36.0,46.0,38.4,-99.9,99,97,89,30.36,30.24,4,1,11,0.02
2012-12-7,45.0,40.3,34.0,45.0,40.2,34.0,99,99,96,30.34,30.14,3,1,10,0.01
2012-12-8,44.0,36.0,33.0,42.0,35.7,33.0,99,98,90,30.55,30.33,2,0,2,0.00
2012-12-9,46.0,40.0,36.0,45.0,39.8,36.0,99,98,92,30.57,30.44,4,1,11,0.04
2012-12-10,46.0,41.7,38.0,46.0,41.7,38.0,99,99,99,30.62,30.27,2,0,8,0.00
2012-12-11,45.0,42.4,41.0,45.0,42.4,41.0,99,99,99,30.27,29.74,4,1,14,0.19
2012-12-12,41.0,41.0,41.0,41.0,41.0,40.0,99,99,99,30.23,29.81,0,0,2,0.03
2012-12-13,44.0,40.1,38.0,43.0,40.0,38.0,99,99,94,30.24,29.98,3,0,8,0.06
2012-12-14,44.0,39.2,35.0,41.0,38.1,35.0,99,96,79,30.15,29.97,3,0,9,0.03
2012-12-15,38.0,35.1,32.0,38.0,35.1,32.0,99,99,99,30.11,29.72,4,1,11,0.73
2012-12-16,37.0,34.7,32.0,37.0,34.7,32.0,99,99,99,29.92,29.15,4,1,11,1.04
2012-12-17,49.0,37.1,32.0,39.0,35.7,31.0,99,95,68,30.06,29.12,4,1,14,1.22
2012-12-18,36.0,33.8,33.0,36.0,33.8,33.0,99,99,99,30.15,30.05,2,0,10,0.14
2012-12-19,34.0,33.1,33.0,34.0,33.1,33.0,99,99,99,30.13,29.77,2,0,8,0.57
2012-12-20,37.0,35.0,33.0,37.0,35.0,33.0,99,99,99,30.02,29.71,3,1,11,3.60
2012-12-21,46.0,35.9,32.0,46.0,35.9,32.0,99,99,95,30.02,29.86,2,0,6,0.06
2012-12-22,43.0,39.0,35.0,43.0,39.0,35.0,99,99,99,29.92,29.71,5,1,14,0.86
2012-12-23,43.0,38.7,36.0,43.0,38.7,36.0,99,99,99,30.01,29.83,2,0,10,0.90
2012-12-24,46.0,37.0,32.0,46.0,37.0,32.0,99,99,96,30.35,30.01,2,0,5,0.02
2012-12-25,37.0,34.5,33.0,37.0,34.5,33.0,99,99,99,30.25,29.87,1,0,6,0.94
2012-12-26,43.0,39.7,36.0,43.0,39.7,36.0,99,99,99,30.09,29.89,4,1,11,0.48
2012-12-27,50.0,39.9,36.0,49.0,39.8,36.0,99,99,95,30.34,30.09,2,0,4,0.01
2012-12-28,48.0,40.6,36.0,45.0,40.0,36.0,99,97,87,30.35,29.71,1,0,4,0.01
2012-12-29,39.0,38.3,38.0,39.0,38.3,38.0,99,99,99,30.43,30.37,2,0,4,0.01
2012-12-30,44.0,37.9,33.0,44.0,37.6,33.0,99,98,86,30.50,30.43,1,0,3,0.01
2012-12-31,38.0,34.4,31.0,38.0,34.4,31.0,99,99,99,30.65,30.48,1,0,2,0.00